#timestamp,LO_Frequency,Hit,StdDev 
1530208815.1,286047000.3,N
1530208835.9,286047000.3,N
1530208855.7,286047001.1,N
1530208875.5,286046998.9,N
1530208895.4,286046998.5,N
1530208915.2,286046999.3,N
1530208935.1,286046997.4,N
1530208936.0,286046997.4,N
1530208955.8,286046999.2,N
1530208975.6,286046995.0,Y
1530208995.5,286046996.7,P
1530209015.3,286046999.6,N
1530209035.2,286046998.7,N
1530209055.9,286046996.7,N
1530209075.7,286046997.8,N
1530209095.6,286046997.6,N
1530209115.4,286046997.1,N
1530209135.2,286046997.2,N
1530209155.1,286046998.0,N
1530209156.0,286046998.0,N
1530209175.8,286046995.3,Y
1530209195.7,286046998.1,P
1530209215.5,286047000.5,P
1530209235.3,286046999.9,N
1530209255.2,286047002.2,N
1530209275.0,286047000.3,N
1530209275.9,286047000.3,N
1530209295.7,286046998.1,N
1530209315.6,286046996.7,N
1530209335.4,286046996.6,N
1530209355.3,286046998.8,N
1530209375.1,286046999.5,N
1530209376.0,286046999.5,N
1530209395.8,286046997.1,N
1530209415.7,286046997.9,N
1530209435.5,286046995.7,N
1530209455.3,286046995.2,N
1530209475.2,286046997.3,N
1530209495.0,286046997.9,N
1530209495.9,286046997.9,N
1530209515.8,286046997.5,N
1530209535.6,286046998.0,N
1530209555.4,286046996.4,N
1530209575.3,286046994.1,Y
1530209595.1,286046995.3,P
1530209615.9,286046995.3,P
1530209635.7,286046996.8,N
1530209655.5,286046995.1,Y
1530209675.4,286047000.1,P
1530209695.2,286046998.5,N
1530209715.0,286046999.4,N
1530209715.9,286046999.4,N
1530209735.8,286047000.3,N
1530209755.6,286047001.8,N
1530209775.5,286047000.4,N
1530209795.3,286046998.6,N
1530209815.1,286046999.4,N
1530209835.9,286046999.4,N
1530209855.7,286047000.7,N
1530209875.5,286046998.1,N
1530209895.4,286046999.9,N
1530209915.2,286046998.2,N
1530209935.1,286047002.4,N
1530209936.0,286047011.9,Y
1530209955.8,286047001.7,P
1530209975.6,286047002.2,N
1530209995.5,286047002.3,N
1530210015.3,286047001.9,N
1530210035.1,286047000.5,N
1530210055.9,286047001.6,N
1530210075.7,286047004.3,Y
1530210095.6,286046999.9,P
1530210115.4,286046999.0,N
1530210135.2,286046998.8,N
1530210155.1,286046999.2,N
1530210156.0,286046999.2,N
1530210175.8,286046997.3,Y
1530210195.7,286046997.1,P
1530210215.5,286047001.2,N
1530210235.3,286047000.6,N
1530210255.2,286046998.4,N
1530210275.9,286046998.4,N
1530210295.7,286047001.0,N
1530210315.6,286047001.1,N
1530210335.4,286046999.1,N
1530210355.3,286046999.4,N
1530210375.1,286046998.4,N
1530210376.0,286046998.4,N
1530210395.8,286046999.6,N
1530210415.7,286046997.8,N
1530210435.5,286046996.7,N
1530210455.3,286047001.1,N
1530210475.2,286047001.0,N
1530210495.0,286047001.2,N
1530210495.9,286047001.2,N
1530210515.8,286046998.2,N
1530210535.6,286046998.4,N
1530210555.4,286046996.9,N
1530210575.3,286046996.8,N
1530210595.1,286046997.2,N
1530210615.8,286046999.4,N
1530210635.7,286046998.5,N
1530210655.5,286046998.2,N
1530210675.4,286046999.1,N
1530210695.2,286046998.7,N
1530210715.0,286047000.5,N
1530210715.9,286047000.5,N
1530210735.8,286046998.4,N
1530210755.6,286046999.1,N
1530210775.4,286046996.6,N
1530210795.3,286046996.7,N
1530210815.1,286046996.5,N
1530210835.9,286046997.1,N
1530210855.7,286046997.8,N
1530210875.5,286046998.0,N
1530210895.4,286046997.3,N
1530210915.2,286046997.4,N
1530210935.0,286046995.6,N
1530210935.9,286046995.6,N
1530210955.8,286046996.8,N
1530210975.6,286046997.9,N
1530210995.5,286046995.1,Y
1530211015.3,286046999.6,P
1530211035.1,286046998.9,N
1530211055.9,286046999.4,N
1530211075.7,286046998.9,N
1530211095.5,286047000.7,N
1530211115.4,286046999.0,N
1530211135.2,286046999.5,N
1530211155.1,286046998.8,N
1530211156.0,286046998.8,N
1530211175.8,286046998.3,N
1530211195.6,286046999.1,N
1530211215.5,286046999.4,N
1530211235.3,286046999.5,N
1530211255.1,286046999.0,N
1530211275.9,286046998.4,N
1530211295.7,286047000.8,N
1530211315.6,286046998.8,N
1530211335.4,286046998.8,N
1530211355.2,286046999.4,N
1530211375.1,286047001.2,N
1530211376.0,286047001.2,N
1530211395.8,286046996.9,Y
1530211415.6,286046996.6,P
1530211435.5,286047000.8,N
1530211455.3,286047002.4,N
1530211475.2,286047002.6,N
1530211495.9,286046999.9,N
1530211515.7,286046999.9,N
1530211535.6,286046999.7,N
1530211555.4,286047002.7,N
1530211575.2,286047001.5,N
1530211595.1,286047001.9,N
1530211596.0,286047001.9,N
1530211615.8,286047002.4,N
1530211635.7,286047001.6,N
1530211655.5,286046999.7,N
1530211675.3,286047004.4,N
1530211695.2,286047001.5,N
1530211715.0,286047003.4,N
1530211715.9,286047003.4,N
1530211735.8,286047002.0,N
1530211755.6,286047001.4,N
1530211775.4,286047004.3,N
1530211795.3,286047001.4,N
1530211815.1,286047001.4,N
1530211835.9,286047001.8,N
1530211855.7,286047002.6,N
1530211875.5,286047004.3,N
1530211895.4,286047004.4,N
1530211915.2,286047001.4,N
1530211935.0,286047006.0,Y
1530211936.0,286047006.0,P
1530211955.8,286047004.2,N
1530211975.6,286047005.5,P
1530211995.5,286047005.5,Y
1530212015.3,286046998.6,P
1530212035.1,286047001.0,N
1530212055.9,286046998.7,N
1530212075.7,286046999.4,N
1530212095.6,286047001.2,N
1530212115.4,286047000.9,N
1530212135.2,286047000.0,N
1530212155.1,286047002.4,N
1530212156.0,286047002.4,N
1530212175.8,286047002.1,N
1530212195.7,286047000.1,N
1530212215.5,286047002.5,N
1530212235.3,286047002.6,N
1530212255.2,286047001.7,N
1530212275.0,286047000.2,N
1530212275.9,286047000.2,N
1530212295.8,286047001.0,N
1530212315.6,286046999.9,N
1530212335.4,286047001.0,N
1530212355.3,286046999.8,N
1530212375.1,286047000.5,N
1530212395.8,286047000.5,N
